Location: Lake Lucerne
(45.5315°N, 88.8489°W)
Time: 14:48:02
(UTC-05:00)

Envisat - Visible Passes

Search period start: 19 October 2017 00:00
Search period end: 29 October 2017 00:00
Orbit: 764 x 766 km, 98.2° (Epoch: 19 October)

Date Brightness Start Highest point End Pass type
(mag) Time Alt. Az. Time Alt. Az. Time Alt. Az.
19 Oct 3.9 19:35:33 26° ENE 19:35:47 26° ENE 19:39:59 10° N visible
19 Oct 4.3 21:15:46 37° WNW 21:15:46 37° WNW 21:19:27 10° NNW visible
20 Oct 4.7 18:58:34 13° ENE 18:59:31 14° ENE 19:02:00 10° NNE visible
20 Oct 3.3 20:38:48 59° NNW 20:38:48 59° NNW 20:42:54 10° NNW visible
20 Oct 6.0 22:19:00 11° WNW 22:19:00 11° WNW 22:19:27 10° WNW visible
21 Oct 3.5 20:01:48 41° NE 20:01:48 41° NE 20:05:59 10° N visible
21 Oct 5.2 21:42:01 22° WNW 21:42:01 22° WNW 21:44:36 10° NW visible
22 Oct 4.2 19:24:50 22° ENE 19:24:50 22° ENE 19:28:36 10° NNE visible
22 Oct 4.2 21:05:02 39° NW 21:05:02 39° NW 21:08:26 10° NNW visible
23 Oct 4.8 18:47:50 11° ENE 18:48:35 11° NE 18:50:01 10° NE visible
23 Oct 3.5 20:28:02 48° N 20:28:02 48° N 20:31:46 10° N visible
23 Oct 5.9 22:08:16 13° WNW 22:08:16 13° WNW 22:09:12 10° NW visible
24 Oct 3.8 19:51:04 32° NE 19:51:04 32° NE 19:54:44 10° N visible
24 Oct 5.1 21:31:16 23° NW 21:31:16 23° NW 21:33:43 10° NNW visible
25 Oct 4.4 19:14:04 18° NE 19:14:04 18° NE 19:17:10 10° NNE visible
25 Oct 4.2 20:54:17 37° NNW 20:54:17 37° NNW 20:57:23 10° NNW visible
26 Oct 3.8 20:17:18 38° NNE 20:17:18 38° NNE 20:20:37 10° N visible
26 Oct 5.8 21:57:31 14° NW 21:57:31 14° NW 21:58:37 10° NW visible
27 Oct 4.1 19:40:18 26° NE 19:40:18 26° NE 19:43:27 10° N visible
27 Oct 5.0 21:20:31 24° NW 21:20:31 24° NW 21:22:46 10° NNW visible
28 Oct 4.7 19:03:18 15° NE 19:03:18 15° NE 19:05:37 10° NNE visible
28 Oct 4.3 20:43:31 33° NNW 20:43:31 33° NNW 20:46:18 10° NNW visible
